Middlebury State AP, Middlebu, VT

6:30 PM EST on November 21, 2019 (GMT -0500)
Middlebury State AP, Middlebu

Weather History for K6B0 - October, 2019

Change the Weather History Date:

Monday, October 21, 2019

  Actual Average (KRUT) Record (KRUT)
Temperature  
Mean Temperature 48 °F -  
Max Temperature 60 °F 59 °F 80 °F (1979)
Min Temperature 35 °F 35 °F 18 °F (1972)
Degree Days  
Heating Degree Days 18    
Moisture  
Dew Point 42 °F    
Average Humidity 92    
Maximum Humidity 100    
Minimum Humidity 63    
Precipitation  
Precipitation 0.00 in - - ()
Sea Level Pressure  
Sea Level Pressure 30.12 in    
Wind  
Wind Speed 1 mph ()    
Max Wind Speed 6 mph    
Max Gust Speed -    
Visibility 5.1 miles    
Events Fog    
Averages and records for this station are not official NWS values.
T = Trace of Precipitation, MM = Missing Value Source: Averaged Metar Reports

Daily Weather History Graph

Daily Weather History Graph

Search for Another Location

Airport or City:

Astronomy

Oct. 21, 2019 Rise Set
Actual Time 7:14 AM EDT 5:59 PM EDT
Civil Twilight 6:44 AM EDT 6:28 PM EDT
Nautical Twilight 6:11 AM EDT 7:02 PM EDT
Astronomical Twilight 5:37 AM EDT 7:35 PM EDT
Moon No Moon Rise 2:37 PM EDT
Length of Visible Light 11h 43m
Length of Day
10h 44m
Waning Gibbous, 48% of the Moon is Illuminated
Oct 21
Waning Gibbous
Oct 27
New
Nov 4
First Quarter
Nov 12
Full
Nov 19
Last Quarter

Hourly Weather History & Observations

Time (EDT) Temp. Windchill Dew Point Humidity Pressure Visibility Wind Dir Wind Speed Gust Speed Precip Events Conditions
12:15 AM 39.6 °F - 39.2 °F 99% 30.04 in 1.2 mi Calm Calm - N/A   Mist
12:16 AM 39.7 °F - 39.4 °F 99% 30.04 in 1.0 mi Calm Calm - N/A   Mist
12:35 AM 39.9 °F - 39.4 °F 98% 30.05 in 0.2 mi Calm Calm - N/A Fog Fog
12:57 AM 40.1 °F - 39.9 °F 99% 30.04 in 0.8 mi Calm Calm - N/A   Mostly Cloudy
1:15 AM 40.1 °F - 39.7 °F 99% 30.05 in 0.8 mi Calm Calm - N/A   Mist
1:35 AM 39.2 °F - 38.7 °F 98% 30.05 in 1.2 mi Calm Calm - N/A   Scattered Clouds
1:36 AM 39.2 °F - 38.8 °F 99% 30.05 in 1.2 mi Calm Calm - N/A   Scattered Clouds
1:55 AM 39.6 °F - 39.2 °F 99% 30.06 in 2.0 mi Calm Calm - N/A   Clear
1:56 AM 39.6 °F - 39.2 °F 99% 30.06 in 2.5 mi Calm Calm - N/A   Clear
2:18 AM 38.7 °F - 38.5 °F 99% 30.07 in 1.5 mi Calm Calm - N/A   Mist
2:36 AM 39.0 °F - 38.5 °F 98% 30.06 in 5.0 mi Calm Calm - N/A   Clear
2:56 AM 38.1 °F - 37.8 °F 99% 30.07 in 2.5 mi Calm Calm - N/A   Clear
3:15 AM 36.5 °F 33.9 °F 36.1 °F 99% 30.08 in 1.5 mi North 3.5 mph - N/A   Scattered Clouds
3:16 AM 36.9 °F 34.3 °F 36.5 °F 99% 30.08 in 1.5 mi North 3.5 mph - N/A   Scattered Clouds
3:35 AM 37.2 °F - 36.9 °F 99% 30.08 in 1.2 mi Calm Calm - N/A   Mist
3:40 AM 37.0 °F - 36.9 °F 99% 30.08 in 1.2 mi Calm Calm - N/A   Mist
3:58 AM 38.1 °F - 37.8 °F 99% 30.07 in 1.8 mi Calm Calm - N/A   Scattered Clouds
4:16 AM 36.7 °F - 36.1 °F 98% 30.08 in 1.0 mi Calm Calm - N/A   Mostly Cloudy
4:35 AM 36.0 °F - 35.6 °F 99% 30.09 in 0.2 mi Calm Calm - N/A Fog Fog
4:55 AM 36.9 °F - 36.5 °F 99% 30.09 in 0.5 mi Calm Calm - N/A Fog Fog
4:56 AM 36.9 °F - 36.7 °F 99% 30.09 in 0.5 mi Calm Calm - N/A Fog Fog
5:19 AM 35.8 °F - 35.4 °F 99% 30.10 in 1.8 mi Calm Calm - N/A   Scattered Clouds
5:36 AM 37.8 °F - 37.6 °F 99% 30.09 in 4.0 mi Calm Calm - N/A   Clear
5:56 AM 36.5 °F - 36.3 °F 99% 30.10 in 3.0 mi Calm Calm - N/A   Clear
6:15 AM 36.0 °F - 35.8 °F 99% 30.11 in 0.8 mi Calm Calm - N/A   Mostly Cloudy
6:16 AM 36.0 °F - 35.8 °F 99% 30.11 in 0.8 mi Calm Calm - N/A   Mostly Cloudy
6:35 AM 36.3 °F - 36.0 °F 99% 30.11 in 0.8 mi Calm Calm - N/A   Overcast
6:39 AM 36.0 °F - 35.8 °F 99% 30.12 in 0.8 mi Calm Calm - N/A   Overcast
6:57 AM 35.6 °F - 35.4 °F 99% 30.12 in 1.0 mi Calm Calm - N/A   Overcast
7:15 AM 36.5 °F - 36.3 °F 99% 30.13 in 0.2 mi Calm Calm - N/A Fog Fog
7:35 AM 35.6 °F - 35.4 °F 99% 30.12 in 0.2 mi Calm Calm - N/A Fog Fog
7:36 AM 35.6 °F - 35.4 °F 99% 30.12 in 0.2 mi Calm Calm - N/A Fog Fog
7:55 AM 36.1 °F - 36.1 °F 100% 30.13 in 0.2 mi Calm Calm - N/A Fog Fog
8:18 AM 37.0 °F - 36.9 °F 99% 30.13 in 0.2 mi Calm Calm - N/A Fog Fog
8:36 AM 37.8 °F - 37.6 °F 99% 30.14 in 0.2 mi Calm Calm - N/A Fog Fog
8:56 AM 38.8 °F - 38.7 °F 99% 30.14 in 0.2 mi Calm Calm - N/A Fog Fog
9:15 AM 39.6 °F - 39.4 °F 99% 30.15 in 0.2 mi Calm Calm - N/A Fog Fog
9:16 AM 39.6 °F - 39.4 °F 99% 30.15 in 0.2 mi Calm Calm - N/A Fog Fog
9:35 AM 40.1 °F - 39.9 °F 99% 30.15 in 0.2 mi Calm Calm - N/A Fog Fog
9:39 AM 40.3 °F - 40.1 °F 99% 30.14 in 0.2 mi Calm Calm - N/A Fog Fog
9:57 AM 40.6 °F - 40.5 °F 99% 30.15 in 0.2 mi Calm Calm - N/A Fog Fog
10:15 AM 41.5 °F - 41.4 °F 99% 30.16 in 0.2 mi Calm Calm - N/A Fog Fog
10:35 AM 41.5 °F - 41.4 °F 99% 30.16 in 0.2 mi Calm Calm - N/A Fog Fog
10:36 AM 41.5 °F 39.6 °F 41.4 °F 99% 30.16 in 0.2 mi NNW 3.5 mph - N/A Fog Fog
11:19 AM 42.6 °F - 42.4 °F 99% 30.17 in 0.5 mi Calm Calm - N/A Fog Fog
11:37 AM 43.5 °F 41.9 °F 43.3 °F 99% 30.16 in 3.0 mi NNW 3.5 mph - N/A   Overcast
11:56 AM 44.4 °F - 44.4 °F 100% 30.16 in 7.0 mi Calm Calm - N/A   Overcast
12:15 PM 45.5 °F - 45.1 °F 99% 30.15 in 10.0 mi Calm Calm - N/A   Overcast
12:16 PM 45.5 °F - 45.1 °F 99% 30.15 in 10.0 mi Calm Calm - N/A   Overcast
12:35 PM 47.3 °F - 45.9 °F 95% 30.15 in 10.0 mi NW 3.5 mph - N/A   Overcast
12:39 PM 47.7 °F - 45.9 °F 93% 30.15 in 10.0 mi NNW 3.5 mph - N/A   Mostly Cloudy
12:57 PM 50.7 °F - 46.2 °F 85% 30.14 in 10.0 mi Calm Calm - N/A   Scattered Clouds
1:15 PM 52.0 °F - 46.8 °F 82% 30.13 in 10.0 mi North 3.5 mph - N/A   Clear
1:35 PM 53.6 °F - 47.3 °F 79% 30.12 in 10.0 mi North 5.8 mph - N/A   Clear
1:36 PM 53.8 °F - 47.7 °F 80% 30.12 in 10.0 mi North 5.8 mph - N/A   Clear
1:55 PM 55.2 °F - 48.0 °F 77% 30.12 in 10.0 mi NNE 3.5 mph - N/A   Clear
1:56 PM 55.2 °F - 48.0 °F 77% 30.12 in 10.0 mi Calm Calm - N/A   Clear
2:19 PM 57.2 °F - 48.0 °F 71% 30.12 in 10.0 mi Calm Calm - N/A   Clear
2:37 PM 58.1 °F - 48.6 °F 71% 30.11 in 10.0 mi WNW 4.6 mph - N/A   Clear
2:55 PM 58.8 °F - 48.9 °F 70% 30.11 in 10.0 mi West 4.6 mph - N/A   Clear
2:56 PM 58.8 °F - 48.9 °F 70% 30.11 in 10.0 mi West 4.6 mph - N/A   Clear
3:15 PM 59.4 °F - 49.1 °F 69% 30.10 in 10.0 mi NNW 3.5 mph - N/A   Clear
3:16 PM 59.4 °F - 49.3 °F 69% 30.10 in 10.0 mi Calm Calm - N/A   Clear
3:35 PM 59.9 °F - 49.3 °F 68% 30.09 in 10.0 mi NNW 4.6 mph - N/A   Clear
3:39 PM 59.9 °F - 49.1 °F 67% 30.10 in 10.0 mi WNW 4.6 mph - N/A   Clear
3:57 PM 60.3 °F - 48.6 °F 65% 30.11 in 10.0 mi NNW 3.5 mph - N/A   Clear
4:15 PM 60.3 °F - 48.2 °F 64% 30.11 in 10.0 mi NW 3.5 mph - N/A   Clear
4:35 PM 59.9 °F - 47.1 °F 63% 30.12 in 10.0 mi NW 3.5 mph - N/A   Clear
4:36 PM 59.7 °F - 47.1 °F 63% 30.12 in 10.0 mi NW 3.5 mph - N/A   Clear
4:55 PM 58.8 °F - 47.5 °F 66% 30.12 in 10.0 mi NW 3.5 mph - N/A   Clear
5:00 PM 58.6 °F - 46.9 °F 65% 30.13 in 10.0 mi NNW 3.5 mph - N/A   Clear
5:17 PM 58.3 °F - 45.9 °F 63% 30.12 in 10.0 mi Calm Calm - N/A   Clear
5:35 PM 55.0 °F - 47.7 °F 76% 30.12 in 10.0 mi Calm Calm - N/A   Clear
5:55 PM 52.2 °F - 48.0 °F 86% 30.13 in 10.0 mi Calm Calm - N/A   Clear
5:56 PM 52.0 °F - 47.8 °F 86% 30.13 in 10.0 mi Calm Calm - N/A   Clear
6:15 PM 50.9 °F - 47.3 °F 87% 30.14 in 10.0 mi Calm Calm - N/A   Clear
6:16 PM 50.5 °F - 46.9 °F 87% 30.14 in 10.0 mi Calm Calm - N/A   Clear
6:38 PM 49.1 °F - 47.1 °F 93% 30.14 in 10.0 mi Calm Calm - N/A   Clear
6:56 PM 48.2 °F - 46.4 °F 93% 30.13 in 10.0 mi Calm Calm - N/A   Clear
7:15 PM 47.5 °F - 45.7 °F 93% 30.13 in 10.0 mi Calm Calm - N/A   Clear
7:16 PM 47.5 °F - 45.7 °F 93% 30.13 in 10.0 mi Calm Calm - N/A   Clear
7:36 PM 46.4 °F - 45.1 °F 95% 30.13 in 10.0 mi Calm Calm - N/A   Clear
7:59 PM 44.6 °F - 43.7 °F 97% 30.13 in 1.5 mi Calm Calm - N/A   Mist
8:16 PM 44.2 °F - 43.5 °F 97% 30.13 in 0.8 mi Calm Calm - N/A   Mist
8:36 PM 44.6 °F - 44.2 °F 99% 30.14 in 10.0 mi Calm Calm - N/A   Clear
8:55 PM 44.2 °F - 43.5 °F 97% 30.13 in 10.0 mi Calm Calm - N/A   Clear
8:56 PM 43.9 °F - 43.3 °F 98% 30.13 in 10.0 mi Calm Calm - N/A   Clear
9:15 PM 43.9 °F - 43.3 °F 98% 30.14 in 10.0 mi Calm Calm - N/A   Clear
9:20 PM 43.0 °F - 42.4 °F 98% 30.14 in 7.0 mi Calm Calm - N/A   Clear
9:37 PM 42.4 °F - 41.9 °F 98% 30.15 in 7.0 mi Calm Calm - N/A   Clear
9:56 PM 41.7 °F - 41.2 °F 98% 30.13 in 7.0 mi Calm Calm - N/A   Clear
10:15 PM 42.1 °F - 41.9 °F 99% 30.13 in 10.0 mi Calm Calm - N/A   Clear
10:16 PM 42.1 °F - 41.9 °F 99% 30.13 in 10.0 mi Calm Calm - N/A   Clear
10:35 PM 41.0 °F 39.0 °F 40.5 °F 98% 30.13 in 2.0 mi SSW 3.5 mph - N/A   Clear
10:59 PM 41.5 °F - 41.2 °F 99% 30.14 in 10.0 mi Calm Calm - N/A   Clear
11:16 PM 39.6 °F - 39.2 °F 99% 30.13 in 4.0 mi Calm Calm - N/A   Clear
11:35 PM 40.6 °F - 40.3 °F 99% 30.12 in 3.0 mi Calm Calm - N/A   Clear
11:36 PM 40.5 °F - 40.3 °F 99% 30.12 in 3.0 mi Calm Calm - N/A   Clear
11:55 PM 40.5 °F - 40.1 °F 99% 30.13 in 2.0 mi Calm Calm - N/A   Clear
11:56 PM 40.5 °F - 39.9 °F 98% 30.13 in 1.8 mi Calm Calm - N/A   Mist